Ellensburg, WA
on Wednesday, December 19, 2012

Wednesday
Previous Day Next Day
Daily Summary
 ActualAverage (KYKM)Record (KYKM)
Temperature
Mean Temperature °F 28°F  
Max Temperature 37°F 35°F 51°F (2004)
Min Temperature 14°F 21°F -9°F (1984)
Degree Days
Heating Degree Days 40 37  
Month to date heating degree days 680  
Since 1 July heating degree days 2213  
Cooling Degree Days 0 0  
Month to date cooling degree days 0  
Year to date cooling degree days 472  
Moisture
Dew Point 22°F   
Average Humidity 77    
Maximum Humidity 85    
Minimum Humidity 65    
Precipitation
Precipitation 0.01 in 0.05 in 0.46 in (1953)
Month to date precipitation 0.93  
Year to date precipitation 7.65  
Snow
Snow 0.00 in 0.40 in 4.60 in (1964)
Month to date snowfall 5.7  
Year to date snowfall 17.9  
Since 1 July snowfall 9.3  
Snow Depth in   
Wind
Wind Speed 4 mph   
Max Wind Speed 13 mph   
Max Gust Speed mph   
Visibility 7 miles   
Events Snow   

Key: T is trace of precipitation, MM is missing value
Source: NWS Daily Summary
Time(PST)TemperatureDew PointHumidity Pressure Visibility Wind DirectionWind SpeedGust SpeedPrecipitationEvents Conditions
12:53 AM 14.0°F 8.1°F 77% 30.03 in 9.0 miles Calm Calm - N/A   Clear
1:53 AM 18.0°F 12.0°F 78% 30.02 in 9.0 miles Calm Calm - N/A   Mostly Cloudy
2:53 AM 14.0°F 9.0°F 80% 30.04 in 8.0 miles Calm Calm - N/A   Overcast
3:53 AM 16.0°F 10.0°F 77% 30.01 in 10.0 miles WSW 5.8 mph - N/A   Overcast
4:53 AM 18.0°F 12.9°F 81% 30.00 in 10.0 miles NNE 4.6 mph - N/A   Overcast
5:53 AM 19.9°F 15.1°F 81% 30.00 in 10.0 miles Calm Calm - N/A   Overcast
6:08 AM 21.2°F 15.8°F 80% 29.91 in 10.0 miles Calm Calm - N/A   Overcast
6:53 AM 19.0°F 14.0°F 81% 29.99 in 7.0 miles Calm Calm - N/A   Overcast
7:53 AM 19.0°F 14.0°F 81% 29.98 in 8.0 miles Calm Calm - N/A   Mostly Cloudy
8:53 AM 19.9°F 16.0°F 85% 29.98 in 7.0 miles South 3.5 mph - N/A   Overcast
9:53 AM 21.0°F 16.0°F 81% 29.98 in 6.0 miles Calm Calm - N/A   Haze
10:53 AM 26.1°F 19.9°F 78% 29.96 in 7.0 miles SW 4.6 mph - N/A   Overcast
11:17 AM 24.8°F 19.4°F 80% 29.87 in 2.5 miles Variable 3.5 mph - 0.00 in Snow Light Snow
11:28 AM 26.6°F 21.2°F 80% 29.87 in 1.2 miles Calm Calm - 0.00 in Snow Light Snow
11:38 AM 26.6°F 21.2°F 80% 29.87 in 1.0 miles Calm Calm - 0.00 in Snow Light Snow
11:53 AM 28.9°F 24.1°F 82% 29.94 in 0.8 miles ENE 4.6 mph - 0.00 in Snow Light Snow
12:07 PM 30.2°F 24.8°F 80% 29.86 in 1.2 miles ENE 6.9 mph - 0.00 in Snow Light Snow
12:51 PM 32.0°F 24.8°F 75% 29.85 in 3.0 miles East 9.2 mph - 0.00 in Snow Light Snow
12:53 PM 32.0°F 26.1°F 79% 29.92 in 3.0 miles East 9.2 mph - 0.00 in Snow Light Snow
1:30 PM 33.8°F 24.8°F 70% 29.83 in 2.0 miles East 10.4 mph - 0.00 in Snow Light Snow
1:43 PM 33.8°F 26.6°F 75% 29.82 in 1.8 miles East 12.7 mph - 0.00 in Snow Light Snow
1:53 PM 33.1°F 26.1°F 75% 29.88 in 3.0 miles East 12.7 mph - 0.00 in Snow Light Snow
2:53 PM 33.1°F 27.0°F 78% 29.88 in 10.0 miles ESE 10.4 mph - 0.01 in   Overcast
3:03 PM 33.8°F 26.6°F 75% 29.81 in 10.0 miles ESE 10.4 mph - N/A   Overcast
3:25 PM 33.8°F 26.6°F 75% 29.80 in 10.0 miles ESE 10.4 mph - N/A   Overcast
3:53 PM 33.1°F 27.0°F 78% 29.86 in 10.0 miles East 11.5 mph - N/A   Overcast
4:53 PM 33.1°F 27.0°F 78% 29.84 in 8.0 miles East 9.2 mph - N/A   Overcast
5:25 PM 33.8°F 26.6°F 75% 29.78 in 4.0 miles East 8.1 mph - 0.00 in Snow Light Snow
5:53 PM 34.0°F 27.0°F 75% 29.84 in 10.0 miles East 8.1 mph - 0.00 in   Overcast
6:53 PM 35.1°F 27.0°F 72% 29.82 in 10.0 miles East 8.1 mph - N/A   Overcast
7:53 PM 35.1°F 27.0°F 72% 29.82 in 10.0 miles ENE 6.9 mph - N/A   Overcast
8:53 PM 36.0°F 27.0°F 70% 29.81 in 10.0 miles East 6.9 mph - 0.00 in   Overcast
9:53 PM 36.0°F 27.0°F 70% 29.79 in 10.0 miles East 9.2 mph - N/A   Overcast
10:35 PM 35.6°F 28.4°F 75% 29.73 in 10.0 miles East 6.9 mph - 0.00 in   Overcast
10:43 PM 37.4°F 26.6°F 65% 29.73 in 10.0 miles East 6.9 mph - 0.00 in   Overcast
10:53 PM 37.0°F 27.0°F 67% 29.78 in 9.0 miles East 6.9 mph - 0.00 in Snow Light Snow
11:53 PM 36.0°F 27.0°F 70% 29.76 in 10.0 miles ESE 3.5 mph - 0.00 in   Overcast
Moon Phase
Dec. 19 Dec. 20 Dec. 28 Jan. 04 Jan. 11
Sunrise:07:44 AM (PST) Moon Rise:11:29 AM (PST)
Sunset:04:14 PM (PST) Moon Set:No Moon Set/

Copyright © 2014 The Weather Underground, Inc.